Regional Weather Roundup
Issued by NWS

Home | Current Version | Previous Version | Text Only | Print | Product List | Glossary On
Versions: 1 2 3 4 5 6 7 8 9 10 11 12 13 14 15 16 17 18 19 20 21 22 23 24 25 26 27 28 29 30 31 32 33 34 35 36 37 38 39 40 41 42 43 44 45 46 47 48 49 50
000
ASUS43 KTOP 272008
RWRKS

WEATHER ROUNDUP FOR KANSAS
NATIONAL WEATHER SERVICE GOODLAND KS
300 PM CDT WED MAY 27 2015

NOTE:  "FAIR" INDICATES FEW OR NO CLOUDS BELOW 12,000 FEET WITH NO
SIGNIFICANT WEATHER AND/OR OBSTRUCTIONS TO VISIBILITY.

KSZ001>006-013>018-027>032-041>047-272100-
NORTHWEST KANSAS

CITY           SKY/WX    TMP DP  RH WIND       PRES   REMARKS
GOODLAND       MOSUNNY   78  57  48 S20G30    30.02F
HAYS           PTSUNNY   75  59  57 SE16      30.08F
HILL CITY      CLOUDY    75  61  61 SE15G23   30.06F
RUSSELL        CLOUDY    74  62  66 SE12      30.08F
$$

KSZ061>065-074>080-084>089-272100-
SOUTHWEST KANSAS

CITY           SKY/WX    TMP DP  RH WIND       PRES   REMARKS
DODGE CITY     MOSUNNY   79  61  53 SE20G26   30.06F
ELKHART          N/A     83  53  35 S10         N/A
GARDEN CITY    MOSUNNY   79  60  52 SE25G31   30.01F
GREAT BEND     PTSUNNY   77  63  61 SE15G22   30.07F
LIBERAL        MOSUNNY   84  57  39 SE17G23   30.03F
PRATT          MOSUNNY   79  59  50 SE12G17   30.09F
$$

KSZ066>073-081>083-090>101-272100-
SOUTHEAST KANSAS

CITY           SKY/WX    TMP DP  RH WIND       PRES   REMARKS
CHANUTE        MOSUNNY   82  66  58 SE9       30.09S
COFFEYVILLE    SUNNY     82  66  58 SW5       30.07F
HUTCHINSON     MOSUNNY   81  63  54 SE10      30.08F
MEDICINE LODGE   N/A     81  63  54 SE9G18    30.05F
NEWTON         MOSUNNY   79  61  53 SE8       30.12S
PARSONS        MOSUNNY   82  65  56 CALM      30.09F
WICHITA INTL   PTSUNNY   79  64  60 S13       30.07F
WICHITA JABRA  PTSUNNY   80  64  58 SE10      30.08F
WICHITA MCCONL MOSUNNY   80  65  58 E12       30.08F
WINFIELD       PTSUNNY   82  65  56 E9        30.08F
$$

KSZ007>012-019>026-033>040-048>060-102>105-272100-
NORTHEAST KANSAS

CITY           SKY/WX    TMP DP  RH WIND       PRES   REMARKS
CONCORDIA      PTSUNNY   79  53  40 SE14      30.09F
EMPORIA        MOSUNNY   79  58  48 SE7       30.10S
LAWRENCE       SUNNY     80  51  36 VRB5      30.09F
MANHATTAN      PTSUNNY   81  55  40 SE5       30.08F
MARYSVILLE     MOSUNNY   81  52  36 S8        30.09S
OLATHE IND     SUNNY     80  52  37 VRB3      30.11S
OLATHE EXE     MOSUNNY   80  56  43 S5        30.09F
SALINA         PTSUNNY   79  58  48 SE10      30.09F
TOPEKA BILLARD MOSUNNY   81  54  39 SE13      30.09S
TOPEKA FORBES  MOSUNNY   81  54  39 SE9       30.09F
$$



USA.gov is the U.S. government's official web portal to all federal, state and local government web resources and services.